NOAA 16 DEB, 41220

Orbit data source: Space-Track

NOAA 16 DEB, 41220 is space debris in SSO originally from a launch on Thu, 21 Sep 2000 UTC launched from the Air Force Western Test Range (AFWTR). Debris objects in space refer to the collection of defunct objects orbiting the Earth. Examples of debris include non-operational satellites, rocket bodies, and fragments generated from explosions, collisions, or faulty payload assembly.

Loading next visibility...
Identifier
41220, 2000-055DZ
Orbit
SSO
Country
Flag of USUS
Related business
Manufacturer
Unknown
Mission
Spacecraft
Bus & Motor
Unknown
Mass
Unknown
Launch date (UTC)
2000-09-21 (25 years ago)
Launch vehicle
Unknown
Launch site
Air Force Western Test Range (AFWTR)
Object type
Payload
Rocket body
Debris
Shape & HBR
Unknown shape, 0.1 m
Radar Cross Section
Small (<0.1 m²)

Expand to show TLE details & history
Last TLE update: 3 days ago

TLE from 3 days ago
0 NOAA 16 DEB
1 41220U 00055DZ  25293.57901571  .00005335  00000-0  24636-2 0  9994
2 41220  98.6842 340.2354 0016806 156.1893 204.0066 14.21270583508131
Epoch: 2025-10-20T13:53Z
TLE epoch observation values (Epoch: 2025-10-20T13:53:46.957Z)
Latitude
0.00007°
Longitude
102.51043°
Altitude
835.034 km
Speed
7.43 km/s
True Right ascension
22h 40m 56s
True Declination
0° 00' 00"
Sunlit
Object was in full shadow at epoch
Visualization orbit readout
Latitude
Unknown
Longitude
Unknown
Altitude
Unknown
Speed
Unknown
Apparent Right ascension
Unknown
Apparent Declination
Unknown
Sunlit
N/A
Visualization observer readout
Local Sidereal Time
12:19:39
Azimuth
Unknown
Elevation
Unknown
Doppler factor
Unknown
Orbital elements
Apogee altitude
830.309 km
Perigee altitude
806.12 km
Semi-major axis
7,196.352 km
Eccentricity
0.00168
Inclination
98.6842°
RAAN
340.2354°
Arg. of periapsis
156.1893°
True anomaly
203.9284°
Mean anomaly
204.0066°
Eccentric anomaly
203.96748°
Mean motion
3.55529 °/min
Orbital period
101.26 mins
BSTAR
0.0024636
Loading maneuver chart data...
Computing Atmospheric mass density...
Loading historical data...
Loading historical data...
Loading historical data...
Loading historical data...
Loading historical data...
Loading historical data...
Loading historical data...

Documentation

Showing up to 5 results
|